EST,Max TemperatureF,Mean TemperatureF,Min TemperatureF,Max Dew PointF,MeanDew PointF,Min DewpointF,Max Humidity, Mean Humidity, Min Humidity, Max Sea Level PressureIn, Mean Sea Level PressureIn, Min Sea Level PressureIn, Max VisibilityMiles, Mean VisibilityMiles, Min VisibilityMiles, Max Wind SpeedMPH, Mean Wind SpeedMPH, Max Gust SpeedMPH,PrecipitationIn, CloudCover, Events, WindDirDegrees
2012-1-1,60,42,24,46,32,23,100,79,44,30.18,30.09,29.97,10,10,5,15,2,33,0.00,5,Rain,308
2012-1-2,39,30,21,27,10,3,74,41,26,30.14,30.09,30.00,10,10,1,18,9,29,0.00,3,Snow,313
2012-1-3,28,22,17,14,7,1,80,53,36,30.30,30.24,30.13,10,9,2,15,7,22,0.00,3,Snow,321
2012-1-4,46,29,12,19,11,1,92,63,18,30.34,30.23,30.11,10,10,10,15,1,23,0.00,0,,292
2012-1-5,55,37,19,28,17,1,93,58,11,30.15,30.10,30.08,10,10,10,10,2,,0.00,0,,331
2012-1-6,62,40,19,28,22,16,93,69,16,30.16,30.10,30.01,10,10,10,6,0,,0.00,0,,246
2012-1-7,53,42,30,48,37,27,100,84,66,30.11,30.05,30.02,10,8,1,6,0,,0.04,7,Rain,53
2012-1-8,53,48,42,50,46,41,100,93,82,30.23,30.17,30.12,10,4,0,0,0,,0.06,8,Fog-Rain,-1
2012-1-9,55,50,44,54,48,45,100,94,87,30.18,30.13,30.06,10,4,0,5,0,,0.15,8,Fog-Rain,359
2012-1-10,53,48,44,52,47,43,100,93,82,30.11,30.04,29.97,10,5,0,0,0,,0.01,8,Fog-Rain,-1
2012-1-11,57,50,44,52,47,41,100,90,67,29.90,29.66,29.47,10,8,2,22,2,34,0.34,8,Rain,156
2012-1-12,53,46,39,43,39,32,100,80,47,29.68,29.62,29.52,10,10,3,22,2,30,0.04,7,Rain,214
2012-1-13,32,28,23,18,14,12,69,58,48,30.04,29.92,29.79,10,9,3,12,5,21,0.00,4,Snow,323
2012-1-14,42,28,15,21,14,12,86,57,31,30.19,30.12,30.03,10,10,10,14,3,20,0.00,1,,305
2012-1-15,46,35,23,23,18,5,86,52,20,30.45,30.31,30.09,10,10,10,12,6,25,0.00,2,,329
2012-1-16,46,34,21,27,22,18,93,67,34,30.48,30.42,30.33,10,10,10,12,1,16,0.00,5,,145
2012-1-17,53,40,28,50,39,27,100,90,77,30.31,30.12,29.95,10,9,4,13,1,18,0.74,6,Rain,127
2012-1-18,46,38,30,37,27,21,81,68,45,30.11,30.04,30.00,10,10,10,14,7,18,0.00,0,,309
2012-1-19,44,34,23,28,23,19,93,75,37,30.14,30.08,30.01,10,10,7,7,0,,0.00,1,,101
2012-1-20,44,38,32,43,35,28,100,86,71,30.12,30.07,30.01,10,9,3,0,0,,0.03,8,Rain,-1
2012-1-21,53,50,46,52,47,43,100,90,76,30.00,29.92,29.87,10,9,2,12,3,16,0.60,8,Rain,26
2012-1-22,51,46,42,48,43,41,94,87,71,30.20,30.16,30.08,10,6,0,6,1,,0.02,8,Fog,107
2012-1-23,51,45,39,45,42,37,100,86,71,30.13,30.04,29.99,10,8,0,17,5,26,0.25,7,Fog-Rain,152
2012-1-24,60,46,32,45,31,9,100,69,13,30.27,30.16,30.05,10,6,0,9,1,16,0.02,3,Fog,323
2012-1-25,62,44,26,37,29,23,100,70,22,30.32,30.25,30.16,10,10,10,7,1,,0.01,2,,151
2012-1-26,59,48,37,54,47,34,93,80,58,30.16,30.01,29.80,10,9,4,8,3,,0.01,7,Rain,146
2012-1-27,57,45,33,54,38,30,94,71,44,30.04,29.85,29.63,10,10,4,16,5,26,0.01,4,Rain,306
2012-1-28,51,40,28,39,27,12,100,75,31,30.25,30.13,30.04,10,6,0,21,3,26,0.00,4,Fog,322
2012-1-29,48,34,19,23,15,0,93,59,14,30.37,30.31,30.26,10,10,10,17,3,26,0.00,0,,273
2012-1-30,57,38,19,28,20,12,93,66,18,30.43,30.35,30.30,10,10,10,9,1,,0.00,0,,250
2012-1-31,60,40,21,32,22,12,93,61,16,30.43,30.35,30.26,10,10,10,7,0,,0.00,2,,104